St. Paul Lake Elmo, MN

4:28 AM CST on November 22, 2019 (GMT -0600)
St. Paul Lake Elmo

Weather History for K21D - September, 2019

Change the Weather History Date:

Monday, September 9, 2019

  Actual Average (KSTP) Record (KSTP)
Temperature  
Mean Temperature 62 °F -  
Max Temperature 68 °F 75 °F 93 °F (2013)
Min Temperature 55 °F 54 °F 46 °F (2008)
Degree Days  
Heating Degree Days 4    
Growing Degree Days 12 (Base 50)    
Moisture  
Dew Point 58 °F    
Average Humidity 94    
Maximum Humidity 100    
Minimum Humidity 82    
Precipitation  
Precipitation 0.38 in - - ()
Sea Level Pressure  
Sea Level Pressure 30.01 in    
Wind  
Wind Speed 7 mph (WSW)    
Max Wind Speed 15 mph    
Max Gust Speed 22 mph    
Visibility 9 miles    
Events Rain , Thunderstorm    
Averages and records for this station are not official NWS values.
T = Trace of Precipitation, MM = Missing Value Source: NWS Daily Summary

Daily Weather History Graph

Daily Weather History Graph

Search for Another Location

Airport or City:

Astronomy

Sep. 09, 2019 Rise Set
Actual Time 6:42 AM CDT 7:34 PM CDT
Civil Twilight 6:12 AM CDT 8:03 PM CDT
Nautical Twilight 5:37 AM CDT 8:39 PM CDT
Astronomical Twilight 5:00 AM CDT 9:16 PM CDT
Moon 5:42 PM CDT (9/9) 2:01 AM CDT (9/9)
Length of Visible Light 13h 50m
Length of Day
12h 51m
Waxing Gibbous, 83% of the Moon is Illuminated
Sep 9
Waxing Gibbous
Sep 13
Full
Sep 21
Last Quarter
Sep 28
New
Oct 5
First Quarter

Hourly Weather History & Observations

Time (CDT) Temp. Dew Point Humidity Pressure Visibility Wind Dir Wind Speed Gust Speed Precip Events Conditions
12:15 AM 57.2 °F 53.6 °F 88% 30.17 in 10.0 mi WSW 4.6 mph - N/A   Overcast
12:16 AM 57.2 °F 53.6 °F 88% 30.17 in 10.0 mi WSW 4.6 mph - N/A   Overcast
12:35 AM 57.2 °F 53.6 °F 88% 30.16 in 10.0 mi WSW 5.8 mph - N/A   Overcast
12:40 AM 57.2 °F 53.6 °F 88% 30.16 in 10.0 mi WSW 3.5 mph - N/A   Overcast
12:58 AM 57.2 °F 53.6 °F 88% 30.16 in 10.0 mi WSW 3.5 mph - N/A   Overcast
1:16 AM 57.2 °F 53.6 °F 88% 30.16 in 10.0 mi WSW 3.5 mph - N/A   Overcast
1:35 AM 59.0 °F 53.6 °F 82% 30.16 in 10.0 mi WSW 3.5 mph - N/A   Overcast
1:36 AM 57.2 °F 53.6 °F 88% 30.16 in 10.0 mi WSW 3.5 mph - N/A   Overcast
1:55 AM 57.2 °F 53.6 °F 88% 30.16 in 10.0 mi WSW 4.6 mph - N/A   Overcast
2:17 AM 57.2 °F 53.6 °F 88% 30.15 in 10.0 mi WSW 4.6 mph - N/A   Overcast
2:36 AM 57.2 °F 53.6 °F 88% 30.14 in 10.0 mi WSW 5.8 mph - N/A   Overcast
2:55 AM 57.2 °F 53.6 °F 88% 30.14 in 10.0 mi WSW 4.6 mph - N/A   Overcast
2:56 AM 57.2 °F 53.6 °F 88% 30.14 in 10.0 mi WSW 4.6 mph - N/A   Overcast
3:15 AM 57.2 °F 53.6 °F 88% 30.14 in 10.0 mi WSW 4.6 mph - N/A   Overcast
3:38 AM 57.2 °F 53.6 °F 88% 30.14 in 10.0 mi WSW 4.6 mph - N/A   Overcast
3:57 AM 57.2 °F 53.6 °F 88% 30.14 in 10.0 mi WSW 4.6 mph - N/A   Overcast
4:16 AM 55.4 °F 55.4 °F 100% 30.14 in 7.0 mi WSW 5.8 mph - N/A   Overcast
4:35 AM 55.4 °F 55.4 °F 100% 30.13 in 10.0 mi WSW 5.8 mph - N/A   Overcast
4:55 AM 55.4 °F 55.4 °F 100% 30.12 in 10.0 mi WSW 5.8 mph - N/A   Overcast
4:59 AM 55.4 °F 55.4 °F 100% 30.12 in 10.0 mi WSW 5.8 mph - N/A   Overcast
5:17 AM 55.4 °F 55.4 °F 100% 30.13 in 10.0 mi WSW 6.9 mph - N/A   Overcast
5:35 AM 55.4 °F 55.4 °F 100% 30.13 in 10.0 mi WSW 6.9 mph - N/A   Overcast
5:55 AM 57.2 °F 55.4 °F 94% 30.12 in 10.0 mi WSW 8.1 mph - N/A   Overcast
5:56 AM 57.2 °F 55.4 °F 94% 30.12 in 10.0 mi WSW 8.1 mph - N/A   Overcast
6:15 AM 57.2 °F 55.4 °F 94% 30.12 in 10.0 mi WSW 6.9 mph - N/A   Overcast
6:37 AM 57.2 °F 55.4 °F 94% 30.12 in 10.0 mi WSW 8.1 mph - N/A   Overcast
6:56 AM 57.2 °F 55.4 °F 94% 30.12 in 10.0 mi WSW 8.1 mph - N/A   Overcast
7:15 AM 57.2 °F 55.4 °F 94% 30.12 in 10.0 mi WSW 9.2 mph - N/A   Overcast
7:16 AM 57.2 °F 55.4 °F 94% 30.11 in 10.0 mi WSW 10.4 mph 16.1 mph N/A   Overcast
7:35 AM 57.2 °F 55.4 °F 94% 30.11 in 10.0 mi WSW 9.2 mph - N/A   Overcast
7:36 AM 57.2 °F 55.4 °F 94% 30.11 in 10.0 mi WSW 9.2 mph - N/A   Overcast
7:58 AM 57.2 °F 55.4 °F 94% 30.12 in 10.0 mi WSW 6.9 mph - N/A   Overcast
8:17 AM 57.2 °F 55.4 °F 94% 30.12 in 10.0 mi WSW 6.9 mph - N/A   Overcast
8:55 AM 59.0 °F 53.6 °F 82% 30.11 in 10.0 mi WSW 9.2 mph - N/A   Overcast
9:15 AM 59.0 °F 53.6 °F 82% 30.10 in 10.0 mi WSW 6.9 mph 16.1 mph N/A   Overcast
9:19 AM 59.0 °F 55.4 °F 88% 30.10 in 10.0 mi WSW 10.4 mph - N/A   Overcast
9:38 AM 59.0 °F 55.4 °F 88% 30.09 in 10.0 mi WSW 9.2 mph - N/A   Overcast
9:55 AM 59.0 °F 55.4 °F 88% 30.08 in 10.0 mi WSW 10.4 mph 17.3 mph N/A   Overcast
10:15 AM 60.8 °F 55.4 °F 82% 30.07 in 10.0 mi WSW 11.5 mph 21.9 mph N/A   Overcast
10:16 AM 60.8 °F 55.4 °F 82% 30.07 in 10.0 mi WSW 11.5 mph 21.9 mph N/A   Overcast
10:36 AM 60.8 °F 55.4 °F 82% 30.07 in 10.0 mi WSW 9.2 mph - N/A   Overcast
10:59 AM 60.8 °F 55.4 °F 82% 30.09 in 10.0 mi WSW 9.2 mph - N/A   Overcast
11:16 AM 59.0 °F 55.4 °F 88% 30.08 in 10.0 mi WSW 9.2 mph - N/A Thunderstorm Thunderstorm
11:36 AM 59.0 °F 55.4 °F 88% 30.07 in 10.0 mi WSW 9.2 mph 18.4 mph N/A   Overcast
11:55 AM 59.0 °F 55.4 °F 88% 30.07 in 4.0 mi WSW 10.4 mph 16.1 mph N/A Rain , Thunderstorm Rain
12:15 PM 59.0 °F 57.2 °F 94% 30.05 in 2.5 mi WSW 9.2 mph - 0.01 in Rain , Thunderstorm Light Thunderstorms and Rain
12:19 PM 59.0 °F 57.2 °F 94% 30.05 in 3.0 mi WSW 10.4 mph - 0.01 in Rain Light Rain
12:37 PM 59.0 °F 57.2 °F 94% 30.04 in 10.0 mi WSW 9.2 mph - 0.08 in Rain , Thunderstorm Light Thunderstorms and Rain
12:56 PM 59.0 °F 57.2 °F 94% 30.04 in 7.0 mi WSW 11.5 mph 17.3 mph 0.12 in Rain Light Rain
1:15 PM 59.0 °F 57.2 °F 94% 30.03 in 10.0 mi WSW 11.5 mph - 0.01 in Rain Light Rain
1:35 PM 59.0 °F 59.0 °F 100% 30.02 in 10.0 mi WSW 8.1 mph - 0.01 in   Overcast
1:39 PM 59.0 °F 59.0 °F 100% 30.01 in 10.0 mi WSW 12.7 mph - 0.01 in   Overcast
1:57 PM 59.0 °F 59.0 °F 100% 30.00 in 10.0 mi WSW 12.7 mph 18.4 mph 0.01 in   Overcast
2:15 PM 59.0 °F 59.0 °F 100% 29.99 in 10.0 mi WSW 10.4 mph - N/A   Overcast
2:55 PM 60.8 °F 59.0 °F 94% 29.98 in 10.0 mi WSW 8.1 mph - 0.01 in   Overcast
3:18 PM 60.8 °F 59.0 °F 94% 29.98 in 10.0 mi WSW 11.5 mph 17.3 mph N/A   Overcast
3:37 PM 60.8 °F 59.0 °F 94% 29.97 in 10.0 mi WSW 11.5 mph 19.6 mph N/A   Overcast
3:55 PM 60.8 °F 59.0 °F 94% 29.93 in 3.0 mi WSW 15.0 mph 19.6 mph 0.05 in Rain Heavy Rain
3:56 PM 60.8 °F 59.0 °F 94% 29.93 in 3.0 mi WSW 15.0 mph 19.6 mph 0.06 in Rain Heavy Rain
4:15 PM 60.8 °F 60.8 °F 100% 29.91 in 5.0 mi WSW 12.7 mph 19.6 mph N/A Rain Light Rain
4:16 PM 60.8 °F 60.8 °F 100% 29.92 in 5.0 mi WSW 10.4 mph 19.6 mph N/A Rain Light Rain
4:56 PM 60.8 °F 60.8 °F 100% 29.93 in 5.0 mi WSW 9.2 mph - 0.03 in Rain Light Rain
5:15 PM 60.8 °F 60.8 °F 100% 29.93 in 7.0 mi WSW 6.9 mph - N/A   Overcast
5:16 PM 60.8 °F 60.8 °F 100% 29.93 in 7.0 mi WSW 6.9 mph - N/A   Overcast
5:35 PM 60.8 °F 60.8 °F 100% 29.93 in 3.0 mi WSW 9.2 mph - N/A   Overcast
5:36 PM 60.8 °F 60.8 °F 100% 29.93 in 3.0 mi WSW 8.1 mph - N/A   Overcast
5:59 PM 60.8 °F 60.8 °F 100% 29.90 in 2.0 mi WSW 9.2 mph - 0.11 in Rain Heavy Rain
6:16 PM 60.8 °F 60.8 °F 100% 29.89 in 5.0 mi WSW 9.2 mph - 0.04 in Rain Light Rain
6:35 PM 60.8 °F 60.8 °F 100% 29.89 in 5.0 mi WSW 8.1 mph - 0.04 in   Overcast
6:36 PM 60.8 °F 60.8 °F 100% 29.88 in 4.0 mi WSW 6.9 mph - 0.04 in   Overcast
6:55 PM 62.6 °F 60.8 °F 94% 29.88 in 4.0 mi WSW 9.2 mph - 0.04 in   Overcast
7:19 PM 62.6 °F 62.6 °F 100% 29.87 in 4.0 mi WSW 9.2 mph - N/A   Overcast
7:37 PM 62.6 °F 62.6 °F 100% 29.87 in 5.0 mi WSW 6.9 mph - N/A   Overcast
7:56 PM 62.6 °F 62.6 °F 100% 29.86 in 7.0 mi WSW 9.2 mph - N/A   Overcast
8:15 PM 62.6 °F 62.6 °F 100% 29.85 in 7.0 mi WSW 9.2 mph - N/A   Overcast
8:16 PM 62.6 °F 62.6 °F 100% 29.85 in 7.0 mi WSW 8.1 mph - N/A   Overcast
8:35 PM 62.6 °F 62.6 °F 100% 29.85 in 7.0 mi WSW 10.4 mph - N/A   Overcast
8:40 PM 64.4 °F 62.6 °F 94% 29.84 in 7.0 mi WSW 10.4 mph - N/A   Overcast
8:56 PM 64.4 °F 62.6 °F 94% 29.84 in 10.0 mi WSW 8.1 mph - N/A   Overcast
9:15 PM 64.4 °F 64.4 °F 100% 29.84 in 10.0 mi WSW 8.1 mph - N/A   Overcast
9:35 PM 64.4 °F 64.4 °F 100% 29.83 in 10.0 mi WSW 9.2 mph - N/A   Overcast
9:36 PM 64.4 °F 64.4 °F 100% 29.83 in 10.0 mi WSW 8.1 mph - N/A   Overcast
9:55 PM 64.4 °F 64.4 °F 100% 29.84 in 10.0 mi WSW 6.9 mph - N/A   Overcast
10:17 PM 66.2 °F 64.4 °F 94% 29.83 in 10.0 mi WSW 4.6 mph - N/A   Overcast
10:35 PM 66.2 °F 64.4 °F 94% 29.84 in 10.0 mi Calm Calm - N/A   Overcast
10:55 PM 66.2 °F 64.4 °F 94% 29.83 in 10.0 mi WSW 4.6 mph - N/A   Overcast
10:56 PM 66.2 °F 64.4 °F 94% 29.83 in 10.0 mi WSW 3.5 mph - N/A   Overcast
11:15 PM 66.2 °F 64.4 °F 94% 29.83 in 10.0 mi WSW 5.8 mph - N/A   Overcast
11:20 PM 66.2 °F 66.2 °F 100% 29.83 in 10.0 mi WSW 5.8 mph - N/A   Overcast
11:37 PM 68.0 °F 66.2 °F 94% 29.83 in 10.0 mi WSW 5.8 mph - N/A   Overcast
11:56 PM 66.2 °F 64.4 °F 94% 29.83 in 10.0 mi WSW 5.8 mph - N/A   Scattered Clouds